{"data":{"norad_id":69879,"intl_designator":"2026-156L","name":"ANDURIL-216","alt_names":[],"object_type":"PAYLOAD","status":"ACTIVE","operator":null,"country":"US","launch_date":"2026-07-07","launch_site_code":"AFWTR","launch_vehicle":null,"mission":null,"orbit_class":"UNKNOWN","rcs_meters":null,"size_class":null,"mass_kg":null,"dimensions":null,"purposes":[],"wikipedia_slug":null,"has_3d_model":false,"image_url":null,"decayed_at":null,"tle_current":{"epoch":"2026-09-20T03:24:57.904704Z","epoch_age_seconds":52560,"freshness":"FRESH","line1":"1 69879U 26156L   26263.14233686  .00001072  00000+0  11227-3 0  9996","line2":"2 69879  97.7465 162.3301 0004020 257.7923 102.2845 14.91636730 11156","mean_motion":14.9163673,"eccentricity":0.000402,"inclination_deg":97.7465,"raan_deg":162.3301,"arg_perigee_deg":257.7923,"mean_anomaly_deg":102.2845,"bstar":0.00011227,"rev_number":1115,"period_min":96.538250301734,"perigee_km":590.02930650177,"apogee_km":595.63396528503,"semimajor_km":6970.9686358934,"source":"CELESTRAK","updated_at":"2026-09-20T09:00:25.165002Z"}}}